sat.trackr.live / text

‹ back to catalog

STARLINK-33592

NORAD 62765 · 2025-015H

PAYLOAD ACTIVE UNKNOWN

§ Identity

Operator
Country
US
Launch date
2025-01-21
Launch site
AFWTR
Launch vehicle
Mass (kg)
RCS (m²)

Purposes: comms

External: N2YO · Heavens-Above · Gunter

§ Orbital elements

Epoch: 2026-09-21T20:19:05.355264Z

Period
93.85 min
Inclination
53.1594°
Eccentricity
0.0001426
Mean motion
15.34367272 rev/d
Perigee alt
461.8 km
Apogee alt
463.8 km
Semi-major
6,840.9 km
B*
-5.6733e-5
RAAN
127.0718°
Arg perigee
107.5291°
Mean anomaly
252.5868°
Rev number
9,444

§ Raw data

STARLINK-335921 62765U 25015H   26264.84658976 -.00002291  00000+0 -56733-4 0  99952 62765  53.1594 127.0718 0001426 107.5291 252.5868 15.34367272 94446

JSON: /api/v1/satellites/62765 · /tle

For live sub-satellite position, see the globe view (requires WebGL).

§ Visibility from observer

Set your observer location to see the next 7 days of passes ≥ 10°. The values pass through the URL so the page stays shareable.

No JS? Fill the form by hand. The geolocation button needs JavaScript.